Погода Демьянское

Погода Демьянское : погода сейчас, прогноз погоды и архив. Всё, что Вы хотите узнать о погоде Демьянское!

Поиск расширенной информации на нашем сайте:

Другие новости

Новости СМИ2

Главная страница сайта

Новости сайта

03.07.2017

Напоминаем, что на нашем специализированном сайте Метеоцентр.Азия вы можете получить высокодетализированные автоматические прогнозы погоды по пунктам России, СНГ и мира в авиационном формате (включающие направление и скорость ветра, видимость, явления погоды, количество и форму облачности, нижнюю и верхнюю границу облачности).


Погода Демьянское - сегодня

Время (UTC), дата Ветер
(°,м/с) 
Видим.   Явления Облачность Т
(°С)
Тd
(°С)
f(%) Тe
(°С)
Pmin
(гПа)
dP
(гПа)
Po
(мм)
O2
(г/м3)
Тmin Tmax R s Состояние
почвы
06 17.02.18 250 (З) 10 км  [диам. изморози 5 мм]  1/0 верхняя 
[Ci fib]
-11.8 -13.1 90 -12  1032.7  -0.5  769  325           
09 17.02.18 250 (З) 10 км  [диам. изморози 0 мм]  ясно 
-8.8 -12.4 75 -10  1032  -0.6  768  321           
12 17.02.18 220 (ЮЗ) 10 км    3/0 средняя 
[Ac trans]
-10 -12.7 81 -10  1031.4  -0.5  768  322           
18 17.02.18 тихо ()   10 км    9/0 средняя 
[Ac und]
-10.9 -12.6 87 -11  1029.2  -1.5  766  323           
21 17.02.18 220 (ЮЗ) 10 км    10/0 средняя 
[Ac As]
-9.9 -11.8 86 -10  1027.9  -1.2  765  321           
00 18.02.18 240 (ЮЗ) 4000 м  слаб. снег  10/8 300 м средняя 
[Frnb|As op]
-9.1 -9.8 95 -9  1027.1  -0.8  765  320           
03 18.02.18 280 (З) 10 км  {снег}  10/9 300 м средняя 
[Frnb|As op]
-7.4 -8.2 94 -7  1027.4  0.4  765  318  -11.2    0.8  40  равномерный
сухой снег
100% 
06 18.02.18 260 (З) 10 км  {снег}  3/0 верхняя 
[Ci fib]
-6.9 -10.1 78 -8  1027.6  0.3  765  317           
09 18.02.18 250 (З) 10 км    1/0 верхняя 
[Ci fib]
-4.5 -9.3 69 -6  1027.2  -0.4  765  314           
12 18.02.18 240 (ЮЗ) 10 км    6/0 средняя, верхняя 
[Ac trans|Ci fib]
-5.7 -8.9 78 -5  1027.2  0.1  765  316           
18 18.02.18 210 (ЮЗ) 10 км    8/0 верхняя 
[Cs]
-9.1 -10.1 92 -9  1026.9  -0.1  765  320           
21 18.02.18 220 (ЮЗ) 10 км    8/0 средняя, верхняя 
[Ac trans|Cs]
-10.2 -11 94 -10  1026.7  -0.3  764  321           
00 19.02.18 220 (ЮЗ) 10 км    6/0 верхняя 
[Cs]
-10.8 -11.7 93 -11  1026.4  -0.3  764  322           
03 19.02.18 220 (ЮЗ) 10 км    10/3 1000 м средняя 
[Sc|Ac und]
-9.6 -11 90 -9  1026.6  0.2  764  320  -11.4      40  равномерный
сухой снег
100% 
06 19.02.18 270 (З) 10 км    8/6 1000 м верхняя 
[Sc|Ci fib]
-5.8 -9.4 76 -7  1026.5  764  316           
09 19.02.18 260 (З) 10 км    9/3 1000 м верхняя 
[Sc|Cs]
-4.7 -8 78 -6  1027.4  765  315           
12 19.02.18 240 (ЮЗ) 10 км    9/0 средняя, верхняя 
[Ac trans|Ci sp]
-5.8 -7.8 86 -5  1028.1  0.6  765  316           
18 19.02.18 тихо ()   10 км    10/0 верхняя 
[Cs]
-9.7 -10.4 95 -10  1026.7  -1  764  320           
21 19.02.18 тихо ()   10 км    9/0 верхняя 
[Cs]
-9.9 -11.2 90 -10  1025.5  -1.2  763  320           
00 20.02.18 210 (ЮЗ) 10 км    10/0 верхняя 
[Cs]
-9.6 -11.4 87 -9  1024.9  -0.5  763  320           
03 20.02.18 200 (Ю) 10 км    10/0 средняя 
[Ac und]
-9.2 -12.3 78 -9  1024  -0.8  762  319  -10.4      40  равномерный
сухой снег
100% 
06 20.02.18 220 (ЮЗ) 10 км    10/0 средняя 
[As op]
-8.4 -12.3 73 -8  1023.5  -0.5  762  318           
09 20.02.18 220 (ЮЗ) 10 км  {снег}  10/0 верхняя 
[Ci]
-6 -11.7 64 -6  1023.3  -0.2  762  315           
12 20.02.18 тихо ()   4000 м  слаб. снег  10/0 средняя 
[As op]
-7.5 -10.4 80 -8  1022.7  -0.7  761  317           
15 20.02.18 тихо ()   4000 м  слаб. снег  10/0 средняя 
[As op]
-9.1 -10.1 92 -9  1021.7  -1  761  318    -5.8  0.4     
Время (UTC), дата Ветер
(°,м/с) 
Видим.   Явления Облачность Т
(°С)
Тd
(°С)
f(%) Тe
(°С)
Pmin
(гПа)
dP
(гПа)
Po
(мм)
O2
(г/м3)
Тmin Tmax R s Состояние
почвы

Для получения пояснительной информации подведите курсор к названию столбца.

ПОГОДА Демьянское - архив

Всё, что Вы хотите узнать о погоде Демьянское - удобно и подробно!

Выберите нужную дату (начиная с 1 января 2015* года) и нажмите кнопку "Найти".
Будут отображены архивные сводки погоды по пункту Демьянское, начиная с указанной даты.


Отображать данные в формате CSV (для использования в таблицах Excel)


Внимание! Наш архив погоды предназначен исключительно для личного некоммерческого использования в познавательных целях. Если Вам необходимы официальные справки о состоянии погоды (для производственных, юридических, коммерческих и т.п. целей), обращайтесь в органы Росгидромета.

*Примечание: данная дата относится к архиву по метеостанциям СССР (Россия, СНГ, Балтия).
Архив по метеостанциям Зарубежной Европы и Азии (кроме Китая) хранится 10 дней, по другим регионам земного шара (Китай, Африка, Америка, Австралия, Океания) - 1 день.

Демьянское - район местоположения метеостанции


Название, широта, долгота, высота метеостанции:
Демьянское 59.6°ш. 69.3°д. 57 м над ур. моря [Российская Федерация]

Дополнительная информация

В oтличие oт бoльшинства пoгoдных сайтoв мы публикуем пoдрoбную метеoинфoрмацию в детальнoм прoфессиoнальнoм фoрмате.

Характеристики температуры и влажнoсти вoздуха измеряются на высoте 2 м в тени вдали oт зданий и деревьев.
Скoрoсть ветра измеряется на высoте 10 м (на урoвне рoста челoвека скoрoсть ветра ниже в 1.5-2 раза). Если метеoстанция нахoдится в гoрoде или в лесу, тo скoрoсть ветра занижена на 2-4 м/с пo сравнению с oткрытым местoм. Скoрoсть ветра над акватoриями крупных рек и oзёр, а также на вершинах хoлмoв на 2-5 м/с выше, чем в oбычных услoвиях.
Атмoсфернoе давление в разных тoчках местнoсти мoжет значительнo oтличаться oт давления на метеoстанции, в зависимoсти oт услoвий рельефа (при пoдъёме на 10 м давление пoнижается примернo на 1 мм рт.ст.).